Location: Montbazon
(47.2835°N, 0.6999°E)
Time: 17:08:43
(UTC+00:00)

Meteor 2-16 Rocket - Pass Details

Date: 08 November 2025
Orbit: 942 x 955 km, 82.6° (Epoch: 12 December)

Event Time Altitude Azimuth Distance (km) Brightness Sun altitude
Rises 05:12:52 0° 193° (SSW) 3,597 7.4 -16.9°
Reaches altitude 10° 05:15:21 10° 196° (SSW) 2,658 6.7 -16.4°
Maximum altitude 05:21:25 73° 281° (W) 992 4.3 -15.4°
Drops below altitude 10° 05:27:34 10° 6° (N) 2,686 6.8 -14.4°
Sets 05:30:05 0° 9° (N) 3,637 7.5 -14.0°
